Voltar ao catálogo

SL-8 DEB

AtivoLEO
NORAD 21178·DEBRIS·🇷🇺 Russia

Lançado Feb 12, 1991 de Plesetsk Cosmodrome

Loading…

Próximas Passagens (próximas 24 horas)

TLE

AtualizadoSource: Space-Track

Época: Sep 14, 2026, 09:45 UTC

1 21178U 91009AR  26257.40629831 -.00000103  00000-0 -87389-3 0  9997
2 21178  74.0933 245.8343 0141042 215.4018 299.2432 12.16340126580201

Acompanhe SL-8 DEB em tempo real com AllMySat

Download on the App Store